Eagle River, WI

11:39 PM CDT on June 26, 2017 (GMT -0500)
Eagle River Union

Weather History for KEGV - September, 2015

Change the Weather History Date:

Wednesday, September 2, 2015

  Actual Average Record
Temperature  
Mean Temperature 65 °F -  
Max Temperature 68 °F 69 °F 84 °F (2008)
Min Temperature 62 °F 49 °F 37 °F (2016)
Growing Degree Days 15 (Base 50)    
Moisture  
Dew Point 65 °F    
Average Humidity 98    
Maximum Humidity 100    
Minimum Humidity 88    
Precipitation  
Precipitation 1.34 in - - ()
Sea Level Pressure  
Sea Level Pressure 30.00 in    
Wind  
Wind Speed 2 mph (NE)    
Max Wind Speed 16 mph    
Max Gust Speed 30 mph    
Visibility 6 miles    
Events Fog , Rain    
Averages and records for this station are not official NWS values.
T = Trace of Precipitation, MM = Missing Value Source: NWS Daily Summary

Daily Weather History Graph

Daily Weather History Graph

Search for Another Location

Airport or City:

Trip Planner

Search our weather history database for the weather conditions in past years. The results will help you decide how hot, cold, wet, or windy it might be!

Date:

Astronomy

Sep. 02, 2015 Rise Set
Actual Time 6:18 AM CDT 7:33 PM CDT
Civil Twilight 5:48 AM CDT 8:04 PM CDT
Nautical Twilight 5:10 AM CDT 8:41 PM CDT
Astronomical Twilight 4:31 AM CDT 9:20 PM CDT
Moon 9:57 PM CDT (9/2) 11:03 AM CDT (9/2)
Length of Visible Light 14h 16m
Length of Day
13h 15m
Waning Gibbous, 79% of the Moon is Illuminated
Sep 2
Waning Gibbous
Sep 5
Last Quarter
Sep 13
New
Sep 21
First Quarter
Sep 27
Full

Hourly Weather History & Observations

Time (CDT) Temp. Dew Point Humidity Pressure Visibility Wind Dir Wind Speed Gust Speed Precip Events Conditions
12:15 AM 64.8 °F 64.8 °F 100% 30.00 in 0.5 mi Calm Calm - N/A Fog Fog
12:35 AM 64.6 °F 64.6 °F 100% 30.00 in 0.8 mi Calm Calm - N/A   Overcast
12:55 AM 64.6 °F 64.6 °F 100% 29.99 in 0.5 mi Calm Calm - N/A Fog Fog
1:15 AM 63.0 °F 63.0 °F 100% 29.99 in 0.5 mi Calm Calm - N/A Fog Fog
1:35 AM 64.2 °F 64.2 °F 100% 29.99 in 0.5 mi Calm Calm - N/A Fog Fog
1:55 AM 62.6 °F 62.6 °F 100% 29.99 in 1.5 mi Calm Calm - N/A   Mostly Cloudy
2:15 AM 63.5 °F 63.5 °F 100% 29.98 in 5.0 mi Calm Calm - N/A   Scattered Clouds
2:35 AM 62.8 °F 62.8 °F 100% 29.99 in 0.8 mi Calm Calm - N/A   Mist
2:55 AM 63.0 °F 63.0 °F 100% 29.99 in 5.0 mi Calm Calm - N/A   Scattered Clouds
3:15 AM 63.1 °F 63.1 °F 100% 29.99 in 4.0 mi Calm Calm - N/A   Mostly Cloudy
3:35 AM 63.1 °F 63.1 °F 100% 29.99 in 7.0 mi Calm Calm - N/A   Overcast
3:55 AM 64.0 °F 64.0 °F 100% 29.99 in 4.0 mi Calm Calm - N/A   Mostly Cloudy
4:15 AM 63.5 °F 63.5 °F 100% 29.98 in 5.0 mi Calm Calm - N/A   Mostly Cloudy
4:35 AM 63.5 °F 63.5 °F 100% 29.98 in 5.0 mi Calm Calm - N/A   Scattered Clouds
4:55 AM 63.5 °F 63.5 °F 100% 29.99 in 3.0 mi Calm Calm - N/A   Clear
5:15 AM 64.0 °F 64.0 °F 100% 29.99 in 4.0 mi Calm Calm - N/A   Clear
5:35 AM 63.0 °F 63.0 °F 100% 29.99 in 2.5 mi Calm Calm - N/A   Clear
5:55 AM 63.5 °F 63.5 °F 100% 29.99 in 4.0 mi Calm Calm - N/A   Clear
6:15 AM 62.8 °F 62.8 °F 100% 30.00 in 4.0 mi Calm Calm - N/A   Scattered Clouds
6:35 AM 63.3 °F 63.3 °F 100% 30.00 in 2.0 mi Calm Calm - N/A   Mostly Cloudy
6:55 AM 64.6 °F 64.6 °F 100% 29.99 in 5.0 mi Calm Calm - N/A   Mostly Cloudy
7:15 AM 64.8 °F 64.8 °F 100% 30.00 in 5.0 mi Calm Calm - N/A   Overcast
7:35 AM 66.7 °F 66.7 °F 100% 29.99 in 2.0 mi Calm Calm - N/A   Overcast
7:55 AM 68.0 °F 68.0 °F 100% 29.99 in 0.8 mi Calm Calm - N/A   Overcast
8:15 AM 68.0 °F 68.0 °F 100% 30.00 in 1.0 mi Calm Calm - N/A   Overcast
8:35 AM 66.7 °F 64.4 °F 92% 30.03 in 10.0 mi WNW 16.1 mph 29.9 mph N/A Rain Light Rain
8:55 AM 65.3 °F 64.8 °F 98% 30.05 in 3.0 mi NW 5.8 mph 16.1 mph 0.11 in Rain Heavy Rain
9:15 AM 63.9 °F 63.0 °F 97% 30.03 in 10.0 mi NNE 10.4 mph - 0.02 in Rain Light Rain
9:35 AM 64.6 °F 62.4 °F 93% 30.03 in 10.0 mi North 3.5 mph - 0.02 in   Light Drizzle
9:55 AM 65.5 °F 63.7 °F 94% 30.01 in 10.0 mi ENE 5.8 mph - 0.02 in   Clear
10:15 AM 66.4 °F 64.4 °F 93% 30.01 in 10.0 mi ENE 4.6 mph - N/A   Clear
10:35 AM 66.9 °F 64.2 °F 91% 30.02 in 10.0 mi ENE 4.6 mph - N/A   Clear
10:55 AM 68.0 °F 64.4 °F 88% 30.02 in 10.0 mi ENE 4.6 mph - N/A   Clear
11:15 AM 68.0 °F 65.8 °F 93% 30.04 in 10.0 mi NNW 4.6 mph - N/A   Scattered Clouds
11:35 AM 67.5 °F 65.7 °F 94% 30.04 in 7.0 mi NE 4.6 mph - N/A Rain Rain
11:55 AM 67.3 °F 65.1 °F 93% 30.04 in 10.0 mi NNE 3.5 mph - 0.01 in Rain Rain
12:15 PM 67.3 °F 65.5 °F 94% 30.05 in 10.0 mi Calm Calm - 0.01 in Rain Light Rain
12:35 PM 67.3 °F 66.2 °F 96% 30.05 in 7.0 mi Calm Calm - 0.04 in Rain Rain
12:55 PM 67.5 °F 66.6 °F 97% 30.05 in 7.0 mi Calm Calm - 0.05 in Rain Light Rain
1:15 PM 67.3 °F 66.4 °F 97% 30.04 in 10.0 mi NE 9.2 mph - N/A Rain Light Rain
1:35 PM 67.6 °F 66.9 °F 98% 30.04 in 7.0 mi NE 4.6 mph - 0.01 in Rain Rain
1:55 PM 68.2 °F 66.9 °F 96% 30.04 in 10.0 mi NE 5.8 mph - 0.02 in Rain Light Rain
2:15 PM 68.0 °F 66.9 °F 96% 30.04 in 10.0 mi NE 5.8 mph - N/A Rain Rain
2:35 PM 67.8 °F 66.9 °F 97% 30.03 in 7.0 mi NE 3.5 mph - 0.01 in Rain Rain
2:55 PM 68.0 °F 67.6 °F 99% 30.01 in 7.0 mi Calm Calm - 0.03 in Rain Light Rain
3:15 PM 68.5 °F 68.4 °F 99% 29.99 in 7.0 mi ESE 6.9 mph - N/A Rain Light Rain
3:35 PM 68.9 °F 68.4 °F 98% 29.97 in 7.0 mi East 8.1 mph - N/A Rain Light Rain
3:55 PM 68.9 °F 68.0 °F 97% 29.96 in 10.0 mi Calm Calm - N/A   Light Drizzle
4:15 PM 68.9 °F 67.8 °F 96% 29.96 in 10.0 mi ENE 4.6 mph - N/A   Mostly Cloudy
4:35 PM 68.9 °F 68.0 °F 97% 29.96 in 10.0 mi NNE 3.5 mph - N/A   Overcast
4:55 PM 68.7 °F 67.8 °F 97% 29.97 in 10.0 mi NNE 3.5 mph - N/A   Overcast
5:15 PM 68.0 °F 68.0 °F 100% 29.96 in 7.0 mi NE 4.6 mph - N/A   Overcast
5:35 PM 68.2 °F 68.2 °F 100% 29.96 in 7.0 mi NNE 5.8 mph - N/A   Light Drizzle
5:55 PM 68.4 °F 68.0 °F 99% 29.95 in 10.0 mi East 5.8 mph - N/A   Light Drizzle
6:15 PM 68.4 °F 67.6 °F 98% 29.95 in 10.0 mi ENE 6.9 mph - N/A   Overcast
6:35 PM 68.2 °F 67.6 °F 98% 29.95 in 10.0 mi ENE 5.8 mph - N/A   Overcast
6:55 PM 67.6 °F 67.5 °F 99% 29.95 in 7.0 mi North 8.1 mph - N/A   Overcast
7:15 PM 67.1 °F 66.7 °F 99% 29.96 in 7.0 mi NNE 6.9 mph - 0.01 in Rain Rain
7:35 PM 66.6 °F 66.4 °F 99% 29.96 in 5.0 mi North 9.2 mph - 0.03 in Rain Heavy Rain
7:55 PM 66.2 °F 66.2 °F 100% 29.97 in 2.0 mi NNE 10.4 mph - 0.35 in Rain Heavy Rain
8:15 PM 66.0 °F 65.7 °F 99% 29.98 in 2.5 mi NE 8.1 mph - 0.26 in Rain Heavy Rain
8:35 PM 65.5 °F 65.5 °F 100% 29.99 in 7.0 mi NE 10.4 mph - 0.39 in Rain Rain
8:55 PM 65.3 °F 64.9 °F 99% 29.99 in 4.0 mi ENE 12.7 mph 17.3 mph 0.47 in Rain Rain
9:15 PM 65.3 °F 65.1 °F 99% 29.99 in 5.0 mi ENE 10.4 mph - 0.05 in Rain Heavy Rain
9:35 PM 65.3 °F 64.9 °F 99% 30.00 in 5.0 mi East 9.2 mph 16.1 mph 0.16 in Rain Heavy Rain
9:55 PM 64.9 °F 64.8 °F 99% 30.00 in 4.0 mi East 9.2 mph - 0.24 in Rain Rain
10:15 PM 64.9 °F 64.8 °F 99% 30.00 in 5.0 mi ENE 8.1 mph - 0.02 in Rain Rain
10:35 PM 64.9 °F 64.8 °F 99% 30.00 in 5.0 mi East 9.2 mph - 0.03 in   Drizzle
10:55 PM 64.9 °F 64.8 °F 99% 30.00 in 5.0 mi East 6.9 mph - 0.04 in Rain Light Rain
11:15 PM 64.8 °F 64.6 °F 99% 29.99 in 10.0 mi East 4.6 mph - N/A   Light Drizzle
11:35 PM 64.8 °F 64.6 °F 99% 29.99 in 10.0 mi East 5.8 mph - N/A Rain Light Rain
11:55 PM 64.6 °F 64.4 °F 99% 29.98 in 10.0 mi East 6.9 mph - N/A   Light Drizzle